Regional Weather Roundup
Issued by NWS

Home | Current Version | Previous Version | Graphics & Text | Print | Product List | Glossary On
Versions: 1 2 3 4 5 6 7 8 9 10 11 12 13 14 15 16 17 18 19 20 21 22 23 24 25 26 27 28 29 30 31 32 33 34 35 36 37 38 39 40 41 42 43 44 45 46 47 48 49 50
000
ASUS43 KBIS 231910
RWRND

NORTH DAKOTA REGIONAL WEATHER ROUNDUP
NATIONAL WEATHER SERVICE BISMARCK ND
100 PM CST MON JAN 23 2017

NOTE: "FAIR" INDICATES FEW OR NO CLOUDS BELOW 12,000 FEET WITH NO
SIGNIFICANT WEATHER AND/OR OBSTRUCTIONS TO VISIBILITY.


NDZ001>003-009>011-017-232000-
NORTHWEST NORTH DAKOTA

CITY           SKY/WX    TMP DP  RH WIND       PRES   REMARKS
WILLISTON      CLOUDY    25  20  81 N8        29.78F WCI  16
MINOT          CLOUDY    25  19  78 W16       29.77R WCI  12
$$

NDZ018>021-031>035-040>046-232000-
SOUTHWEST NORTH DAKOTA

CITY           SKY/WX    TMP DP  RH WIND       PRES   REMARKS
BISMARCK       CLOUDY    31  23  72 CALM      29.78F
DICKINSON      CLOUDY    23  20  88 CALM      29.72F
GARRISON         N/A     28  23  81 N7        29.76S
HETTINGER ARPT FOG       23  21  92 SE8       29.73F VSB 1   WCI  14
$$

NDZ004>008-012>016-024-026-027-054-232000-
NORTHEAST NORTH DAKOTA

CITY           SKY/WX    TMP DP  RH WIND       PRES   REMARKS
GRAND FORKS    CLOUDY    32  23  69 W14       29.78F
GRND FRKS AFB  CLOUDY    31  23  70 NW12      29.78S
DEVILS LAKE    CLOUDY    26  22  84 W15       29.75F WCI  14
$$

NDZ022-023-025-028>030-036>039-047>053-232000-
SOUTHEAST NORTH DAKOTA

CITY           SKY/WX    TMP DP  RH WIND       PRES   REMARKS
FARGO          CLOUDY    35  28  75 W8        29.80F
JAMESTOWN      CLOUDY    28  23  81 W8        29.77F WCI  20
$$




USA.gov is the U.S. government's official web portal to all federal, state and local government web resources and services.